Location: Ostrava
(49.8333°N, 18.2833°E)
Time: 01:52:50
(UTC+01:00)

ISS - Visible Passes

Search period start: 21 November 2017 00:00
Search period end: 01 December 2017 00:00
Orbit: 402 x 407 km, 51.6° (Epoch: 21 November)

Date Brightness Start Highest point End Pass type
(mag) Time Alt. Az. Time Alt. Az. Time Alt. Az.
28 Nov -1.6 18:16:37 10° SSW 18:17:53 19° SSW 18:17:53 19° SSW visible
29 Nov -2.1 17:24:54 10° S 17:27:20 19° SE 17:27:47 19° SE visible
29 Nov -0.5 19:00:09 10° WSW 19:00:27 12° WSW 19:00:27 12° WSW visible
30 Nov -1.4 16:33:52 10° SSE 16:35:12 12° SE 16:36:32 10° ESE visible
30 Nov -2.8 18:07:54 10° SW 18:10:17 40° SSW 18:10:17 40° SSW visible
